Regional Weather Roundup
Issued by NWS

Home | Current Version | Previous Version | Text Only | Print | Product List | Glossary On
Versions: 1 2 3 4 5 6 7 8 9 10 11 12 13 14 15 16 17 18 19 20 21 22 23 24 25 26 27 28 29 30 31 32 33 34 35 36 37 38 39 40 41 42 43 44 45 46 47 48 49 50
000
ASUS44 KLIX 050512
RWRLA
LOUISIANA WEATHER ROUNDUP
NATIONAL WEATHER SERVICE NEW ORLEANS LA
1200 AM CDT SUN JUL 05 2015

NOTE: "FAIR" INDICATES FEW OR NO CLOUDS BELOW 12,000 FEET WITH NO
      SIGNIFICANT WEATHER AND/OR OBSTRUCTIONS TO VISIBILITY.
      SKY/WX - SKY CONDITION AND SIGNIFICANT WEATHER.
      TMP - AIR TEMPERATURE.    DP   - DEWPOINT TEMPERATURE.
      RH  - RELATIVE HUMIDITY.  PRES - PRESSURE.
      HX  - HEAT INDEX.         WCI  - WIND CHILL INDEX.

*  THESE STATIONS ARE NOT NWS OR FAA STATIONS AND ARE NOT UNDER
   NWS QUALITY CONTROL.

LAZ040-048-061>063-065-066-069-050600-
SOUTHEAST LOUISIANA

CITY           SKY/WX    TMP DP  RH WIND       PRES   REMARKS
N.O. AUDUBON   NOT AVBL
N.O. INTL ARPT PTCLDY    79  71  76 CALM      30.09R
N.O. LAKEFRONT PTCLDY    83  71  67 CALM      30.09R
N.O. DOWNTOWN* FAIR      82  72  69 SE3       30.10R
RESERVE*       FAIR      76  73  91 CALM      30.09S
SLIDELL        PTCLDY    74  72  93 CALM      30.08S
BATON ROUGE    LGT RAIN  74  72  93 SE3       30.06F FOG
BOOTHVILLE     MOCLDY    81  77  88 E5        30.10R
BELLE CHASSE   PTCLDY    76  73  91 CALM      30.09R FOG
BOGALUSA*        N/A     73  69  89 CALM      30.11R FOG
GALLIANO*      MOCLDY    78  75  90 CALM      30.09R
NEW ROADS*     FAIR     N/A N/A N/A CALM      30.07S
GONZALES*      FAIR      74  74 100 CALM      30.07F FOG
HAMMOND*       MOCLDY    73  70  88 CALM      30.10F FOG
HOUMA*         MOCLDY    77  75  94 CALM      30.09R
PORT FOURCHON* CLEAR     84  75  74 CALM      30.10R

$$

LAZ041-044-053-054-050600-
SOUTHWEST LOUISIANA

CITY           SKY/WX    TMP DP  RH WIND       PRES   REMARKS
LAKE CHARLES   MOCLDY    79  75  87 SE5       30.04S
LAFAYETTE      CLOUDY    76  73  91 NE3       30.07S
PATTERSON      PTCLDY    77  75  94 E3        30.09F
SALT POINT       N/A     79  78  97 CALM      30.06S
NEW IBERIA     NOT AVBL
CHENAULT AIRPK MOCLDY    78  77  97 E5        30.05S FOG

$$

LAZ027-028-050600-
CENTRAL LOUISIANA

CITY           SKY/WX    TMP DP  RH WIND       PRES   REMARKS
FORT POLK      MOCLDY    72  71  96 SE6       30.02F
ALEXANDRIA INT MOCLDY    71  70  96 CALM      30.01S
ALEXANDRIA     CLOUDY    73  70  90 CALM      30.04R

$$

LAZ001-002-050600-
NORTHWEST LOUISIANA

CITY           SKY/WX    TMP DP  RH WIND       PRES   REMARKS
SHREVEPORT     CLOUDY    73  71  93 S5        30.00R
BARKSDALE AFB  MOCLDY    73  72  95 S5        30.01R
DTN SHREVEPORT CLOUDY    74  70  87 S8        30.00S

$$

LAZ014-016-050600-
NORTHEAST LOUISIANA

CITY           SKY/WX    TMP DP  RH WIND       PRES   REMARKS
MONROE         PTCLDY    71  70  96 S5        30.02F
TALLULAH       PTCLDY    71  68  90 CALM      30.03S

$$



USA.gov is the U.S. government's official web portal to all federal, state and local government web resources and services.